Moose, WY

3:25 AM MST on February 21, 2017 (GMT -0700)
Jackson Hole

Weather History for KJAC - November, 2013

Change the Weather History Date:

Tuesday, November 5, 2013

  Actual Average Record
Temperature  
Mean Temperature 17 °F -  
Max Temperature 28 °F 45 °F 60 °F (1985)
Min Temperature 6 °F 18 °F -10 °F (1959)
Degree Days  
Heating Degree Days 48    
Moisture  
Dew Point 15 °F    
Average Humidity 87    
Maximum Humidity 100    
Minimum Humidity 51    
Precipitation  
Precipitation 0.00 in - - ()
Sea Level Pressure  
Sea Level Pressure 30.13 in    
Wind  
Wind Speed 3 mph (SSW)    
Max Wind Speed 14 mph    
Max Gust Speed 20 mph    
Visibility 8 miles    
Events      
Averages and records for this station are not official NWS values.
T = Trace of Precipitation, MM = Missing Value Source: NWS Daily Summary

Daily Weather History Graph

Daily Weather History Graph

Search for Another Location

Airport or City:

Trip Planner

Search our weather history database for the weather conditions in past years. The results will help you decide how hot, cold, wet, or windy it might be!

Date:

Astronomy

Nov. 05, 2013 Rise Set
Actual Time 7:04 AM MST 5:08 PM MST
Civil Twilight 6:34 AM MST 5:38 PM MST
Nautical Twilight 5:59 AM MST 6:12 PM MST
Astronomical Twilight 5:26 AM MST 6:45 PM MST
Moon 9:25 AM MST (11/5) 7:10 PM MST (11/5)
Length of Visible Light 11h 04m
Length of Day
10h 03m
Waxing Crescent, 7% of the Moon is Illuminated
Nov 5
Waxing Crescent
Nov 9
First Quarter
Nov 17
Full
Nov 25
Last Quarter
Dec 2
New

Hourly Weather History & Observations

Time (MST) Temp. Windchill Dew Point Humidity Pressure Visibility Wind Dir Wind Speed Gust Speed Precip Events Conditions
12:15 AM 10.4 °F - 8.6 °F 92% 30.05 in 10.0 mi Calm Calm - N/A   Partly Cloudy
12:35 AM 10.4 °F 4.0 °F 8.6 °F 92% 30.05 in 10.0 mi NW 3.5 mph - N/A   Clear
12:55 AM 6.8 °F -0.1 °F 3.2 °F 85% 30.06 in 10.0 mi NW 3.5 mph - N/A   Clear
1:15 AM 8.6 °F - 6.8 °F 92% 30.06 in 10.0 mi Calm Calm - N/A   Clear
1:35 AM 10.4 °F - 8.6 °F 92% 30.06 in 10.0 mi Calm Calm - N/A   Mostly Cloudy
1:55 AM 12.2 °F - 10.4 °F 92% 30.06 in 10.0 mi Calm Calm - N/A   Overcast
2:15 AM 12.2 °F - 10.4 °F 92% 30.06 in 7.0 mi Calm Calm - N/A   Overcast
2:35 AM 14.0 °F - 12.2 °F 93% 30.06 in 8.0 mi Calm Calm - N/A   Overcast
2:55 AM 12.2 °F - 12.2 °F 100% 30.06 in 6.0 mi Calm Calm - N/A   Overcast
3:15 AM 12.2 °F - 12.2 °F 100% 30.06 in 5.0 mi Calm Calm - N/A   Overcast
3:35 AM 12.2 °F - 12.2 °F 100% 30.06 in 7.0 mi Calm Calm - N/A   Overcast
3:55 AM 12.2 °F - 12.2 °F 100% 30.07 in 5.0 mi Calm Calm - N/A   Overcast
4:15 AM 12.2 °F - 12.2 °F 100% 30.07 in 6.0 mi Calm Calm - N/A   Mostly Cloudy
4:35 AM 12.2 °F 6.1 °F 12.2 °F 100% 30.08 in 3.0 mi NW 3.5 mph - N/A   Overcast
4:55 AM 12.2 °F - 12.2 °F 100% 30.08 in 9.0 mi Calm Calm - N/A   Overcast
5:15 AM 12.2 °F 4.3 °F 12.2 °F 100% 30.09 in 10.0 mi NNW 4.6 mph - N/A   Overcast
5:35 AM 12.2 °F 4.3 °F 10.4 °F 92% 30.09 in 10.0 mi North 4.6 mph - N/A   Mostly Cloudy
5:55 AM 12.2 °F - 12.2 °F 100% 30.10 in 9.0 mi Calm Calm - N/A   Overcast
6:15 AM 14.0 °F - 12.2 °F 93% 30.10 in 9.0 mi Calm Calm - N/A   Overcast
6:35 AM 14.0 °F - 12.2 °F 93% 30.10 in 10.0 mi Calm Calm - N/A   Overcast
6:51 AM 12.2 °F - 12.2 °F 100% 30.10 in 10.0 mi Calm Calm - N/A   Mostly Cloudy
7:51 AM 15.8 °F - 12.2 °F 86% 30.13 in 10.0 mi Calm Calm - N/A   Mostly Cloudy
8:56 AM 15.8 °F - 14.0 °F 93% 30.16 in 10.0 mi Calm Calm - N/A   Mostly Cloudy
9:57 AM 21.2 °F 12.6 °F 19.4 °F 93% 30.16 in 10.0 mi South 6.9 mph - N/A   Overcast
10:58 AM 26.6 °F 16.2 °F 17.6 °F 69% 30.16 in 10.0 mi South 11.5 mph - N/A   Scattered Clouds
11:51 AM 28.4 °F 17.5 °F 17.6 °F 64% 30.16 in 10.0 mi South 13.8 mph - N/A   Scattered Clouds
12:52 PM 26.6 °F 16.8 °F 12.2 °F 55% 30.14 in 10.0 mi South 10.4 mph 19.6 mph N/A   Scattered Clouds
1:59 PM 28.4 °F 19.1 °F 12.2 °F 51% 30.15 in 10.0 mi SSW 10.4 mph - N/A   Partly Cloudy
2:57 PM 28.4 °F 18.5 °F 14.0 °F 55% 30.16 in 10.0 mi SSW 11.5 mph - N/A   Scattered Clouds
3:51 PM 28.4 °F 18.0 °F 15.8 °F 59% 30.16 in 10.0 mi SSW 12.7 mph - N/A   Scattered Clouds
4:51 PM 26.6 °F 16.8 °F 15.8 °F 64% 30.18 in 10.0 mi South 10.4 mph - N/A   Scattered Clouds
5:51 PM 24.8 °F 12.9 °F 17.6 °F 74% 30.18 in 10.0 mi South 13.8 mph - N/A   Mostly Cloudy
6:52 PM 24.8 °F 14.0 °F 19.4 °F 80% 30.20 in 10.0 mi SSE 11.5 mph - N/A   Overcast
7:55 PM 24.8 °F 15.3 °F 21.2 °F 86% 30.21 in 10.0 mi SE 9.2 mph - N/A   Overcast
8:55 PM 24.8 °F 17.9 °F 19.4 °F 80% 30.21 in 10.0 mi South 5.8 mph - N/A   Overcast
9:15 PM 24.8 °F 16.9 °F 19.4 °F 80% 30.21 in 10.0 mi South 6.9 mph - N/A   Overcast
9:35 PM 24.8 °F 19.1 °F 19.4 °F 80% 30.21 in 10.0 mi SW 4.6 mph - N/A   Overcast
9:55 PM 24.8 °F 19.1 °F 21.2 °F 86% 30.21 in 9.0 mi SSW 4.6 mph - N/A   Overcast
10:15 PM 24.8 °F 17.9 °F 21.2 °F 86% 30.21 in 7.0 mi SSW 5.8 mph - N/A   Overcast
10:35 PM 24.8 °F 16.9 °F 21.2 °F 86% 30.21 in 3.0 mi SSW 6.9 mph - N/A   Overcast
10:55 PM 24.8 °F 16.1 °F 23.0 °F 93% 30.20 in 3.0 mi SW 8.1 mph - N/A   Overcast
11:15 PM 24.8 °F 16.1 °F 23.0 °F 93% 30.20 in 2.5 mi SSW 8.1 mph - N/A   Overcast
11:35 PM 24.8 °F 14.6 °F 23.0 °F 93% 30.20 in 1.8 mi SW 10.4 mph - N/A   Overcast
11:55 PM 24.8 °F 15.3 °F 23.0 °F 93% 30.20 in 3.0 mi SW 9.2 mph - N/A   Overcast